Powrót do katalogu

CZ-4B SEP MOTOR COVER

AktywnyPO
NORAD 44891·DEBRIS·🇨🇳 China
Ta nazwa satelity nie została jeszcze potwierdzona przez oficjalne źródła.

Wystrzelony Dec 20, 2019 z Taiyuan Satellite Launch Center

Loading…

Następne Przeloty (najbliższe 24 godziny)

TLE

ŚwieżeSource: Space-Track

Epoka: Sep 14, 2026, 14:19 UTC

1 44891U 19093N   26257.59701416  .00024223  00000-0  62633-3 0  9999
2 44891  98.0657  72.9823 0006169  86.6990 273.4959 15.39086863368515

Śledź CZ-4B SEP MOTOR COVER w czasie rzeczywistym z AllMySat

Download on the App Store